User: anonymous   Login
Location: Caltech
(34.1382°N, 118.1253°W)
Time: 13:24:48
(UTC-07:00)
Language:

Cosmos 2084 - Orbit

View from above orbital plane
View from above orbital plane
View from above satellite
View from above satellite

Ground track
Ground track

The orbit data is extracted from the following two-line orbital elements,

1 20663U 90055A   16206.49987335  .00000150  00000-0  31108-4 0  9992
2 20663  62.7916 241.5640 0127402  57.5579 303.7759 14.91266188410933
Epoch (UTC): 24 July 2016 11:59:49
Eccentricity: 0.0127402
inclination: 62.7916°
perigee height: 505 km
apogee height: 683 km
right ascension of ascending node: 241.5640°
argument of perigee: 57.5579°
revolutions per day: 14.91266188
mean anomaly at epoch: 303.7759°
orbit number at epoch: 41093

The dashed part of the orbit path shows where the satellite is in the earth's shadow,  

DLR